Location: Cheyres
(46.8153°N, 6.7877°E)
Time: 01:09:30
(UTC+00:00)

SPOT 5 - Pass Details

Date: 11 May 2021
Orbit: 623 x 815 km, 98.2° (Epoch: 18 June)

Event Time Altitude Azimuth Distance (km) Brightness Sun altitude
Exits shadow 21:38:30 29° 201° (SSW) 1,387 4.0 -20.4°
Maximum altitude 21:40:50 50° 261° (W) 986 3.6 -20.6°
Drops below altitude 10° 21:45:59 10° 337° (NNW) 2,388 6.7 -21.0°
Sets 21:48:27 0° 343° (NNW) 3,338 7.8 -21.2°
